This is the latest recevied weather packets stored in our database for station/object KD0RII. If no packets are shown the sender has not sent any weather packets the latest 10 day(s).
| Time | Temp. | Humidity | Pressure | Rain* | Wind** | Luminosity | Snow |
|---|---|---|---|---|---|---|---|
| 1777988653 | 8.33° C | 90% | 1012.7 hPa | 1.78 mm | - | 90 W/m² | - |
| 1777988350 | 8.33° C | 90% | 1012.7 hPa | 1.78 mm | - | 59 W/m² | - |
| 1777988047 | 8.33° C | 90% | 1012.5 hPa | 1.27 mm | - | 98 W/m² | - |
| 1777987742 | 8.33° C | 90% | 1012.4 hPa | 1.27 mm | - | 69 W/m² | - |
| 1777987440 | 8.33° C | 90% | 1012.5 hPa | 0 mm | - | 36 W/m² | - |
| 1777987137 | 8.33° C | 90% | 1013 hPa | 0 mm | - | 18 W/m² | - |
| 1777986834 | 8.33° C | 90% | 1012.9 hPa | 0 mm | - | 13 W/m² | - |
| 1777986532 | 8.33° C | 89% | 1012.8 hPa | 3.05 mm | - | 13 W/m² | - |
| 1777986229 | 8.33° C | 89% | 1012.7 hPa | 6.1 mm | - | 20 W/m² | - |
| 1777985926 | 8.33° C | 89% | 1012.7 hPa | 3.05 mm | - | 26 W/m² | - |
| 1777985624 | 8.33° C | 89% | 1013.1 hPa | 0 mm | - | 20 W/m² | - |
| 1777985320 | 8.33° C | 88% | 1013.6 hPa | 0 mm | - | 7 W/m² | - |
| 1777985017 | 8.89° C | 88% | 1012.3 hPa | 1.78 mm | - | 3 W/m² | - |
| 1777984713 | 8.89° C | 87% | 1011.5 hPa | 10.67 mm | - | 9 W/m² | - |
| 1777984410 | 9.44° C | 85% | 1011.6 hPa | 13.72 mm | - | 8 W/m² | - |
| 1777984106 | 10° C | 82% | 1011.6 hPa | 6.1 mm | - | 8 W/m² | - |
| 1777983804 | 10° C | 79% | 1012.4 hPa | 1.27 mm | - | 5 W/m² | - |
| 1777983500 | 10° C | 79% | 1011.7 hPa | 0 mm | - | 3 W/m² | - |
| 1777983197 | 10° C | 78% | 1010.6 hPa | 0 mm | - | 3 W/m² | - |
| 1777982893 | 10° C | 79% | 1010 hPa | 0 mm | - | 6 W/m² | - |
| 1777982589 | 10° C | 79% | 1010.3 hPa | 0 mm | - | 6 W/m² | - |
| 1777982288 | 10° C | 78% | 1010.6 hPa | 0 mm | - | 5 W/m² | - |
| 1777981986 | 10° C | 79% | 1010.5 hPa | 0 mm | - | 6 W/m² | - |
| 1777981683 | 10° C | 79% | 1010.2 hPa | 0 mm | - | 5 W/m² | - |
| 1777981379 | 10° C | 79% | 1010.3 hPa | 0 mm | - | 6 W/m² | - |
* Rain latest hour (hover to see other rain measurements)
** Current wind speed in m/s (hover to see current wind gust speed)